Stations météo

Publicité
Avord, France (7257): Température de l'air & dewpoint: 18.03.2019 00:00:00 - 24.03.2019 00:00:00 (CET)Avord, France (7257): Température de l'air 5cm: 18.03.2019 00:00:00 - 24.03.2019 00:00:00 (CET)Avord, France (7257): Température de l'air -20cm & Température de l'air -100cm: 18.03.2019 00:00:00 - 24.03.2019 00:00:00 (CET)Avord, France (7257): Vitesse du vent & gusts: 18.03.2019 00:00:00 - 24.03.2019 00:00:00 (CET)Avord, France (7257): Direction du vent: 18.03.2019 00:00:00 - 24.03.2019 00:00:00 (CET)Avord, France (7257): reduced air pressure: 18.03.2019 00:00:00 - 24.03.2019 00:00:00 (CET)Avord, France (7257): visibility: 18.03.2019 00:00:00 - 24.03.2019 00:00:00 (CET)Avord, France (7257): Quantités de précipitations: 18.03.2019 00:00:00 - 24.03.2019 00:00:00 (CET)
Date & Time tt [°C] td [°C] tt 5cm [°C] tt -20cm [°C] tt -100cm [°C] ff [km/h] ff [knt] fx [km/h] fx [knt] dd ppp [hPa] vv [km] rr [mm]
24.03.2019 00:00:00 8,3 6,1 - - - 15 8 22 12 NE 1027,5 4,1 0,0
23.03.2019 23:00:00 8,8 6,2 6,4 10,6 9,2 13 7 21 11 NE 1027,8 5 0,0
23.03.2019 22:00:00 10,0 5,8 8,3 10,6 9,2 16 9 24 13 NE 1028,2 7 0,0
23.03.2019 21:00:00 11,3 4,7 9,2 10,5 9,2 19 10 28 15 NNE 1027,8 12 0,0
23.03.2019 20:00:00 11,7 4,4 9,8 10,4 9,2 19 10 26 14 NNE 1027,5 16 0,0
23.03.2019 19:00:00 13,8 4,9 12,3 10,2 9,2 20 11 29 16 NE 1026,9 13 0,0
23.03.2019 18:00:00 16,8 4,1 18,1 10,0 9,3 19 11 26 14 NE 1026,4 7 0,0
23.03.2019 17:00:00 18,1 4,6 22,3 9,7 9,2 15 8 23 12 N 1026,3 16 0,0
23.03.2019 16:00:00 19,1 3,3 27,0 9,4 9,2 8 5 17 9 NNE 1026,4 17 0,0
23.03.2019 15:00:00 19,0 1,5 21,4 9,1 9,2 7 4 25 13 N 1026,9 17 0,0
23.03.2019 14:00:00 18,2 2,1 22,4 8,9 9,2 9 5 18 10 NNW 1027,6 17 0,0
23.03.2019 13:00:00 17,8 3,3 25,6 8,8 9,2 6 4 16 9 NE 1028,2 14 0,0
23.03.2019 12:00:00 16,8 3,1 22,8 8,8 9,2 4 2 12 7 E 1028,6 16 0,0
23.03.2019 11:00:00 14,6 4,8 17,8 8,8 9,2 5 3 13 7 NE 1029,2 13 0,0
23.03.2019 10:00:00 11,8 3,5 12,5 8,9 9,2 4 2 8 4 ENE 1029,4 15 0,0
23.03.2019 09:00:00 8,5 3,5 3,3 9,0 9,2 3 2 6 3 NE 1029,5 16 0,0
23.03.2019 08:00:00 4,6 1,8 -2,5 9,1 9,2 2 1 5 3 ESE 1029,8 15 0,0
23.03.2019 07:00:00 2,0 0,1 -2,8 9,3 9,2 0 0 3 2 N 1029,7 14 0,0
23.03.2019 06:00:00 2,1 0,0 -2,3 9,4 9,2 0 0 3 2 N 1029,5 15 0,0
23.03.2019 05:00:00 2,9 0,3 -1,8 9,5 9,2 0 0 4 2 N 1029,3 16 0,0
23.03.2019 04:00:00 4,1 0,6 -1,2 9,6 9,2 0 0 3 2 N 1029,4 17 0,0
23.03.2019 03:00:00 3,7 0,9 -1,3 9,7 9,2 3 2 6 4 S 1029,4 16 0,0
23.03.2019 02:00:00 5,4 1,3 -0,2 9,8 9,2 5 3 8 5 SE 1029,3 17 0,0
23.03.2019 01:00:00 5,6 1,3 -0,1 9,8 9,2 0 0 3 1 N 1029,0 19 0,0
23.03.2019 00:00:00 7,1 1,8 0,8 9,9 9,2 0 0 3 2 N 1029,2 10 0,0
22.03.2019 23:00:00 7,3 0,7 1,4 9,9 9,2 3 2 5 3 S 1029,1 35 0,0
22.03.2019 22:00:00 9,7 -0,2 3,1 9,9 9,2 3 2 7 4 N 1028,9 17 0,0
22.03.2019 21:00:00 10,4 0,4 3,3 9,8 9,2 0 0 7 4 N 1028,6 20 0,0
22.03.2019 20:00:00 14,5 -1,6 6,5 9,7 9,2 4 2 5 3 W 1027,9 37 0,0
22.03.2019 19:00:00 16,3 -0,4 12,0 9,5 9,2 4 2 9 5 NNW 1027,5 41 0,0
22.03.2019 18:00:00 18,6 0,7 21,5 9,2 9,2 7 4 12 6 NNW 1027,2 23 0,0
22.03.2019 17:00:00 19,1 -0,4 24,6 9,0 9,2 6 3 14 8 W 1027,1 45 0,0
22.03.2019 16:00:00 19,2 -1,3 25,5 8,7 9,2 5 3 19 11 NW 1027,4 32 0,0
22.03.2019 15:00:00 18,7 -1,8 20,5 8,5 9,2 7 4 18 10 WNW 1028,0 20 0,0
22.03.2019 14:00:00 17,9 -0,9 21,3 8,2 9,2 11 6 20 11 W 1028,4 20 0,0
22.03.2019 13:00:00 16,9 2,1 22,9 8,1 9,2 5 3 14 7 W 1029,0 20 0,0
22.03.2019 12:00:00 14,5 3,0 23,5 8,1 9,2 4 2 15 8 SSE 1029,4 18 0,0
22.03.2019 11:00:00 12,2 3,2 18,9 8,1 9,2 6 3 12 7 S 1030,1 18 0,0
22.03.2019 10:00:00 9,3 3,3 10,0 8,2 9,2 5 3 11 6 ESE 1030,3 17 0,0
22.03.2019 09:00:00 6,3 1,8 2,0 8,4 9,2 10 5 14 8 ESE 1030,2 15 0,0
22.03.2019 08:00:00 3,6 0,5 -2,0 8,5 9,2 5 3 13 7 E 1030,3 15 0,0
22.03.2019 07:00:00 1,3 -1,1 -2,9 8,6 9,2 14 7 16 9 E 1030,3 16 0,0
22.03.2019 06:00:00 1,1 -1,1 -3,4 8,8 9,2 9 5 12 7 E 1030,1 16 0,0
22.03.2019 05:00:00 1,7 -1,2 -2,8 8,8 9,2 5 3 10 6 ESE 1029,9 12 0,0
22.03.2019 04:00:00 2,6 -0,7 -2,1 9,0 9,2 8 4 14 8 E 1029,7 13 0,0
22.03.2019 03:00:00 3,5 -0,7 -1,7 9,1 9,2 8 5 10 5 NE 1029,8 17 0,0
22.03.2019 02:00:00 4,3 -0,3 -0,6 9,1 9,2 4 2 14 7 E 1030,1 18 0,0
22.03.2019 01:00:00 5,5 0,1 -1,0 9,2 9,2 10 6 12 7 E 1030,0 20 0,0
22.03.2019 00:00:00 5,6 0,4 -0,4 9,3 9,2 6 4 14 8 SE 1030,4 19 0,0
21.03.2019 23:00:00 6,7 0,4 1,3 9,3 9,2 9 5 17 9 E 1030,3 25 0,0
21.03.2019 22:00:00 8,2 0,4 1,6 9,3 9,2 7 4 13 7 E 1030,3 27 0,0
21.03.2019 21:00:00 10,3 0,0 6,1 9,2 9,2 12 7 18 10 NE 1029,9 29 0,0
21.03.2019 20:00:00 11,5 0,0 8,7 9,1 9,2 15 8 16 9 NE 1029,7 27 0,0
21.03.2019 19:00:00 13,2 -0,1 10,8 9,0 9,2 13 7 25 13 NE 1029,3 32 0,0
21.03.2019 18:00:00 15,2 -1,0 16,3 8,8 9,2 19 10 31 17 NE 1029,0 41 0,0
21.03.2019 17:00:00 15,9 -1,2 20,7 8,6 9,2 18 10 34 18 NE 1029,0 50 0,0
21.03.2019 16:00:00 16,3 -1,8 21,6 8,4 9,2 23 12 34 18 ENE 1029,2 49 0,0
21.03.2019 15:00:00 16,0 -1,1 17,0 8,2 9,2 23 12 36 19 ENE 1029,5 52 0,0
21.03.2019 14:00:00 15,0 -0,4 18,4 8,0 9,2 24 13 36 19 NNE 1030,3 19 0,0
21.03.2019 13:00:00 13,8 0,1 19,9 7,9 9,2 23 12 36 19 ENE 1031,0 41 0,0
21.03.2019 12:00:00 12,4 -0,5 18,0 7,9 9,2 23 12 - - ENE 1031,6 38 0,0
21.03.2019 11:00:00 11,0 1,5 13,8 7,9 9,2 21 11 29 16 ENE 1032,2 19 0,0
21.03.2019 10:00:00 9,1 1,7 9,6 8,0 9,2 21 12 28 15 NE 1032,4 20 0,0
21.03.2019 09:00:00 7,1 2,6 3,8 8,1 9,2 19 10 26 14 ENE 1032,6 18 0,0
21.03.2019 08:00:00 4,7 2,1 0,8 8,2 9,2 16 9 22 12 ENE 1033,0 14 0,0
21.03.2019 07:00:00 3,6 1,3 0,9 8,3 9,2 14 8 20 11 ENE 1032,9 14 0,0
21.03.2019 06:00:00 4,7 1,7 0,0 8,5 9,2 16 9 20 11 ENE 1032,6 16 0,0
21.03.2019 05:00:00 4,5 1,5 -0,4 8,6 9,2 16 9 21 11 NE 1032,5 15 0,0
21.03.2019 04:00:00 5,5 1,4 1,7 8,6 9,2 14 8 21 11 NE 1032,3 18 0,0
21.03.2019 03:00:00 5,2 1,9 -1,9 8,7 9,2 15 8 16 9 NNE 1032,8 18 0,0
21.03.2019 02:00:00 4,5 1,3 -1,8 8,8 9,2 5 3 12 6 NNE 1033,3 17 0,0
21.03.2019 01:00:00 4,4 1,2 -1,4 8,8 9,2 7 4 10 5 N 1033,4 17 0,0
21.03.2019 00:00:00 6,8 1,9 1,4 8,9 9,2 11 6 14 7 NE 1033,5 20 0,0
20.03.2019 23:00:00 6,8 2,1 4,3 8,9 9,2 13 7 17 9 NNE 1033,4 22 0,0
20.03.2019 22:00:00 7,1 1,8 4,3 8,8 9,2 11 6 15 8 NNE 1033,4 30 0,0
20.03.2019 21:00:00 8,5 1,9 5,2 8,8 9,2 13 7 18 10 NE 1033,4 31 0,0
20.03.2019 20:00:00 9,2 1,6 4,9 8,7 9,2 9 5 19 10 NE 1033,4 44 0,0
20.03.2019 19:00:00 11,0 1,5 8,9 8,6 9,2 14 8 25 14 NE 1032,8 60 0,0
20.03.2019 18:00:00 12,3 1,9 12,6 8,4 9,2 19 10 29 15 ENE 1032,4 60 0,0
20.03.2019 17:00:00 12,7 1,4 14,3 8,2 9,2 20 11 32 18 NE 1032,2 59 0,0
20.03.2019 16:00:00 13,2 0,2 17,3 8,0 9,2 22 12 35 19 NE 1032,5 60 0,0
20.03.2019 15:00:00 12,8 0,5 14,4 7,8 9,2 24 13 40 22 NE 1032,9 60 0,0
20.03.2019 14:00:00 12,1 -0,1 14,6 7,6 9,2 24 13 37 20 NE 1033,5 60 0,0
20.03.2019 13:00:00 12,2 0,3 17,0 7,6 9,2 23 13 35 19 NE 1034,1 58 0,0
20.03.2019 12:00:00 11,7 0,4 17,4 7,5 9,1 21 11 31 17 NE 1034,2 56 0,0
20.03.2019 11:00:00 10,5 -0,9 14,3 7,6 9,2 19 10 28 15 NE 1034,4 19 0,0
20.03.2019 10:00:00 9,4 0,8 7,9 7,7 9,2 12 6 21 11 NE 1034,4 20 0,0
20.03.2019 09:00:00 6,5 1,4 -0,4 7,9 9,2 9 5 14 8 NNE 1034,3 20 0,0
20.03.2019 08:00:00 3,3 0,0 -4,9 8,0 9,2 3 2 5 3 NE 1034,4 20 0,0
20.03.2019 07:00:00 0,0 -1,4 -5,7 8,1 9,2 4 2 8 4 NNE 1034,2 19 0,0
20.03.2019 06:00:00 -0,1 -1,8 -5,6 8,3 9,2 5 3 9 5 NE 1034,0 20 0,0
20.03.2019 05:00:00 -0,6 -2,0 -5,4 8,4 9,2 2 1 5 3 NNE 1033,7 19 0,0
20.03.2019 04:00:00 0,6 -2,0 -5,2 8,5 9,2 2 1 3 2 NNE 1033,3 20 0,0
20.03.2019 03:00:00 1,2 -1,2 -4,8 8,7 9,2 2 1 6 3 N 1033,3 27 0,0
20.03.2019 02:00:00 1,7 -1,2 -3,4 8,8 9,2 5 3 8 4 N 1033,4 28 0,0
20.03.2019 01:00:00 1,7 -0,9 -2,9 8,9 9,2 4 2 10 6 NNW 1033,3 30 0,0
20.03.2019 00:00:00 2,3 -0,8 -2,4 8,9 9,2 7 4 10 5 NNW 1033,1 33 0,0
19.03.2019 23:00:00 3,5 -1,1 -1,6 9,0 9,2 6 4 11 6 N 1032,6 35 0,0
19.03.2019 22:00:00 6,6 -0,2 2,6 9,0 9,2 11 6 18 10 NE 1032,0 49 0,0
19.03.2019 21:00:00 6,8 -0,7 2,2 9,0 9,2 13 7 18 10 NNE 1031,5 53 0,0
19.03.2019 20:00:00 7,7 -0,5 3,6 8,9 9,1 9 5 15 8 NNE 1030,7 42 0,0
19.03.2019 19:00:00 8,8 -0,5 6,4 8,9 9,2 10 6 23 12 NNE 1030,0 60 0,0
19.03.2019 18:00:00 10,8 -1,0 12,2 8,8 9,2 19 10 31 17 N 1029,3 60 0,0
19.03.2019 17:00:00 11,5 -1,0 14,2 8,6 9,2 16 9 32 17 NNE 1028,9 60 0,0
19.03.2019 16:00:00 11,5 -1,7 11,8 8,4 9,2 18 10 31 17 N 1028,7 37 0,0
19.03.2019 15:00:00 10,7 0,4 11,5 8,2 9,2 18 10 29 16 NNE 1028,9 50 0,0
19.03.2019 14:00:00 9,8 0,7 11,6 8,1 9,2 15 8 29 16 NNE 1029,2 60 0,0
19.03.2019 13:00:00 9,7 1,3 12,1 8,0 9,2 16 9 24 13 NNE 1029,6 60 0,0
19.03.2019 12:00:00 9,0 3,0 14,8 8,0 9,2 16 9 24 13 NE 1029,3 19 0,0
19.03.2019 11:00:00 8,7 3,5 12,0 8,0 9,2 16 8 23 13 ENE 1029,1 57 0,0
19.03.2019 10:00:00 7,3 4,1 8,3 8,1 9,2 10 5 16 8 NE 1028,9 19 0,0
19.03.2019 09:00:00 5,3 3,9 -0,2 8,2 9,2 2 1 5 3 ENE 1028,7 16 0,0
19.03.2019 08:00:00 2,3 2,2 -2,5 8,3 9,2 0 0 8 4 N 1028,4 9 0,0
19.03.2019 07:00:00 0,9 0,6 -2,5 8,4 9,2 2 1 4 2 NNW 1027,7 1,0 0,0
19.03.2019 06:00:00 2,4 2,1 -1,0 8,5 9,2 0 0 5 3 N 1027,2 6 0,0
19.03.2019 05:00:00 2,7 2,3 -0,3 8,5 9,2 5 3 8 4 NNW 1026,9 4,8 0,0
19.03.2019 04:00:00 3,9 3,6 2,9 8,6 9,2 6 3 10 5 NW 1026,4 19 0,0
19.03.2019 03:00:00 3,6 3,3 0,7 8,7 9,2 5 3 8 5 NNW 1026,6 20 0,0
19.03.2019 02:00:00 3,6 3,3 0,6 8,7 9,2 4 2 7 4 WNW 1026,5 17 0,0
19.03.2019 01:00:00 4,6 3,9 2,9 8,8 9,2 7 4 11 6 NNW 1026,1 51 0,0
19.03.2019 00:00:00 3,7 2,8 1,3 8,8 9,2 7 4 13 7 WNW 1026,0 58 0,0
18.03.2019 23:00:00 4,3 3,1 1,9 8,8 9,2 2 1 16 9 SSW 1026,0 60 0,2
18.03.2019 22:00:00 5,7 4,2 4,9 8,8 9,2 14 8 21 11 NNE 1026,1 16 0,6
18.03.2019 21:00:00 6,4 4,4 5,5 8,8 9,2 12 7 21 12 NNE 1025,6 12 0,4
18.03.2019 20:00:00 7,4 3,1 5,9 8,7 9,2 16 9 24 13 NW 1025,0 60 0,0
18.03.2019 19:00:00 8,1 2,7 7,0 8,6 9,2 7 4 20 11 N 1024,3 60 0,0
18.03.2019 18:00:00 8,7 2,9 7,4 8,5 9,2 8 4 19 11 N 1023,7 60 0,0
18.03.2019 17:00:00 8,2 3,2 7,2 8,4 9,2 21 11 41 22 N 1023,4 11 0,0
18.03.2019 16:00:00 10,7 2,0 7,1 8,2 9,2 15 8 24 13 WNW 1023,0 60 0,4
18.03.2019 15:00:00 9,6 2,9 7,9 8,1 9,2 15 8 28 15 NW 1023,7 19 0,2
18.03.2019 14:00:00 10,7 1,8 11,8 8,0 9,1 17 9 31 17 WNW 1024,0 56 0,0
18.03.2019 13:00:00 9,0 2,8 11,6 8,0 9,1 13 7 27 15 WNW 1024,6 20 0,0
18.03.2019 12:00:00 8,5 4,1 9,8 8,0 9,1 16 9 29 16 W 1024,7 20 0,0
18.03.2019 11:00:00 7,0 4,0 7,9 8,1 9,2 16 9 25 14 WNW 1024,8 20 0,0
18.03.2019 10:00:00 5,6 3,8 4,7 8,1 9,1 16 8 23 13 WNW 1024,7 20 0,0
18.03.2019 09:00:00 4,5 3,2 3,8 8,2 9,1 19 10 26 14 W 1024,0 49 0,0
18.03.2019 08:00:00 3,6 2,9 2,6 8,3 9,1 12 7 19 10 W 1023,4 47 0,0
18.03.2019 07:00:00 2,9 2,3 1,1 8,4 9,1 11 6 18 10 W 1022,8 19 0,0
18.03.2019 06:00:00 3,1 2,5 1,9 8,5 9,1 11 6 18 10 W 1022,3 48 0,0
18.03.2019 05:00:00 2,8 2,2 0,4 8,6 9,1 13 7 18 10 WSW 1022,0 47 0,0
18.03.2019 04:00:00 1,6 1,0 0,1 8,7 9,1 11 6 21 11 W 1021,7 50 0,0
18.03.2019 03:00:00 1,5 1,2 -0,5 8,8 9,1 10 5 18 10 WSW 1021,8 53 0,0
18.03.2019 02:00:00 1,9 1,5 0,0 8,8 9,1 11 6 17 9 SW 1021,7 60 0,0
18.03.2019 01:00:00 3,6 2,3 3,0 8,9 9,1 13 7 31 17 W 1021,3 60 0,0
18.03.2019 00:00:00 4,8 2,5 4,4 8,9 9,1 17 9 30 16 W 1020,7 60 0,0

tt = Température de l'air
td = dewpoint
tt 5cm = Température de l'air 5cm
tt -20cm = Température de l'air -20cm
tt -100cm = Température de l'air -100cm
ff = Vitesse du vent
fx = gusts
dd = Direction du vent
ppp = reduced air pressure
vv = visibility
rr = Quantités de précipitations

stations d'obs. à proximité